This demonstration page uses our WeatherBlox Daily Observations layout. Learn more.

Left ArrowRight Arrow

Hourly Observations for February 24, 2016

Temp ( °F °C ) Dew Point ( °F °C ) Humidity (%) Winds ( mph kmh ) Pressure ( in mb ) Visibility ( mi km ) Precip ( " mm )
12:53 am 00:53 Clear 47 8.3 39 3.9 74 74 Calm 30.10 1019 10 16 0.00 0.00
1:53 am 01:53 Clear 46 7.8 38 3.3 73 73 Calm 30.11 1020 10 16 0.00 0.00
2:53 am 02:53 Partly Cloudy 44 6.7 38 3.3 79 79 N 5 7 30.12 1020 10 16 0.00 0.00
3:53 am 03:53 Mostly Cloudy 45 7.2 38 3.3 77 77 NNW 6 9 30.12 1020 10 16 0.00 0.00
4:53 am 04:53 Clear 45 7.2 38 3.3 77 77 NNW 3 6 30.14 1021 10 16 0.00 0.00
5:53 am 05:53 Clear 43 6.1 37 2.8 80 80 Calm 30.14 1021 10 16 0.00 0.00
6:53 am 06:53 Mostly Sunny 45 7.2 37 2.8 74 74 NNW 3 6 30.15 1021 10 16 0.00 0.00
7:53 am 07:53 Mostly Sunny 47 8.3 38 3.3 71 71 NW 5 7 30.16 1022 10 16 0.00 0.00
8:53 am 08:53 Mostly Cloudy 53 11.7 42 5.6 66 66 Calm 30.17 1022 10 16 0.00 0.00
9:53 am 09:53 Mostly Sunny 59 15 40 4.4 49 49 N 5 7 30.17 1022 10 16 0.00 0.00
10:53 am 10:53 Mostly Sunny 64 17.8 38 3.3 38 38 Calm 30.16 1021 10 16 0.00 0.00
11:53 am 11:53 Mostly Sunny 67 19.4 38 3.3 35 35 VRB 3 6 30.14 1021 10 16 0.00 0.00
12:53 pm 12:53 Mostly Sunny 70 21 37 3 31 31 VRB 5 7 30.09 1019 10 16 0.00 0.00
1:53 pm 13:53 Sunny 71 21.7 39 3.9 31 31 ESE 5 7 30.11 1020 10 16 0.00 0.00
2:53 pm 14:53 Sunny 72 22.2 40 4.4 31 31 S 3 6 30.11 1020 10 16 0.00 0.00
3:53 pm 15:53 Sunny 71 21.7 41 5 34 34 SE 7 11 30.10 1019 10 16 0.00 0.00
4:53 pm 16:53 Sunny 70 21.1 41 5 35 35 VRB 3 6 30.10 1019 10 16 0.00 0.00
5:53 pm 17:53 Sunny 66 18.9 43 6.1 43 43 E 5 7 30.11 1020 10 16 0.00 0.00
6:53 pm 18:53 Clear 62 16.7 42 5.6 48 48 Calm 30.12 1020 10 16 0.00 0.00
7:53 pm 19:53 Clear 55 12.8 42 5.6 62 62 NW 5 7 30.13 1020 10 16 0.00 0.00
8:53 pm 20:53 Clear 54 12.2 41 5 62 62 NW 6 9 30.13 1020 10 16 0.00 0.00
9:53 pm 21:53 Clear 53 11.7 40 4.4 61 61 NNW 5 7 30.13 1020 10 16 0.00 0.00
10:53 pm 22:53 Clear 53 11.7 39 3.9 59 59 NW 8 13 30.13 1020 10 16 0.00 0.00
11:53 pm 23:53 Clear 50 10 40 4.4 68 68 NNW 3 6 30.12 1020 10 16 0.00 0.00

Powered by AerisWeather